CW2613 Weather Reports


Display with metric or nautical units.
time (UTC)temp
F
wind
direction
speed
MPH
gust
MPH
rain 1hr
in
rain 24hr
in
rain mn
in
humidity
%
barometer
mb
20260831043037 0 0.0 0.0 0.00 0.33 0.00 1015.3
20260831041544 75 165 0.0 0.0 0.00 0.33 0.00 1 1015.5
20260831040029 76 165 0.0 0.0 0.00 0.33 0.00 1 1015.6
20260831034526 76 165 0.0 0.0 0.00 0.33 0.33 1 1015.7
20260831033020 76 165 0.0 0.0 0.00 0.33 0.33 1 1015.6
20260831031515 76 165 0.0 0.0 0.00 0.33 0.33 1 1015.7
20260831030011 76 165 0.0 0.0 0.00 0.33 0.33 1 1015.6
20260831024507 77 165 0.0 0.0 0.00 0.33 0.33 1 1015.4
20260831023002 77 165 0.0 0.0 0.00 0.33 0.33 1 1015.6
20260831021559 77 155 0.0 0.0 0.00 0.33 0.33 1 1015.6
20260831020054 77 173 0.0 0.0 0.00 0.33 0.33 1 1015.8
20260831014549 78 173 0.0 0.0 0.00 0.33 0.33 1 1015.6
20260831013045 79 176 0.0 0.0 0.00 0.33 0.33 2 1015.4
20260831011541 80 195 0.0 0.0 0.00 0.33 0.33 11 1015.4
20260831010039 80 172 0.0 0.0 0.00 0.33 0.33 1 1015.2
20260831004531 79 173 0.0 0.0 0.00 0.33 0.33 1 1015.3
20260831003027 80 173 0.0 0.0 0.00 0.33 0.33 1 1015.3
20260831001523 80 185 0.0 0.0 0.00 0.33 0.33 1 1015.3
20260831000024 80 185 0.0 0.0 0.00 0.33 0.33 3 1015.2
20260830234527 81 184 0.0 0.0 0.00 0.33 0.33 14 1015.0
20260830233010 82 184 0.0 0.0 0.00 0.33 0.33 22 1014.8
20260830231506 82 184 0.0 0.0 0.00 0.33 0.33 18 1014.6
20260830230003 83 184 0.0 0.0 0.00 0.33 0.33 28 1014.5
20260830224601 83 184 0.0 0.0 0.00 0.33 0.33 28 1014.3
20260830223101 84 184 0.0 0.0 0.00 0.33 0.33 41 1014.5
20260830221605 84 183 0.0 0.0 0.00 0.33 0.33 44 1014.8
20260830220044 85 176 0.0 0.0 0.00 0.33 0.33 49 1014.7
20260830214539 86 186 0.0 0.0 0.00 0.34 0.33 53 1014.7
20260830213033 87 186 0.0 0.0 0.00 0.34 0.33 56 1014.5
20260830211533 87 189 0.0 0.0 0.00 0.34 0.33 57 1014.6
20260830210027 88 181 0.0 0.0 0.00 0.34 0.33 57 1014.6
20260830204534 88 181 0.0 0.0 0.00 0.35 0.33 58 1014.4
20260830203016 88 175 0.0 0.0 0.00 0.35 0.33 57 1014.4
20260830201511 88 183 0.0 0.0 0.00 0.35 0.33 58 1014.4
20260830200007 89 157 0.0 0.0 0.00 0.35 0.33 59 1014.5
20260830194503 89 194 0.0 0.0 0.00 0.39 0.33 61 1014.7
20260830193108 90 178 0.0 0.0 0.00 0.39 0.33 60 1015.1
20260830191557 89 183 0.0 0.0 0.00 0.39 0.33 61 1015.3
20260830190049 89 167 0.0 0.0 0.00 0.39 0.33 61 1015.4
20260830184545 87 180 0.0 0.0 0.00 0.39 0.33 61 1015.4
20260830183041 86 179 0.0 0.0 0.00 0.39 0.33 59 1015.6
20260830181536 85 176 0.0 0.0 0.00 0.39 0.33 55 1015.8
20260830180038 83 179 0.0 0.0 0.00 0.39 0.33 40 1016.1
20260830174526 81 177 0.0 0.0 0.00 0.39 0.33 31 1016.1
20260830173021 81 182 0.0 0.0 0.00 0.39 0.33 25 1016.1
20260830171518 81 181 0.0 0.0 0.00 0.39 0.33 31 1016.1
20260830170014 79 163 0.0 0.0 0.00 0.39 0.33 7 1016.4
20260830164533 78 181 0.0 0.0 0.00 0.39 0.33 1 1016.5
20260830163005 78 178 0.0 0.0 0.00 0.39 0.33 1 1016.5
20260830161610 77 190 0.0 0.0 0.02 0.39 0.33 1 1016.8
20260830160056 75 190 0.0 0.0 0.17 0.39 0.33 1 1016.8
20260830154559 74 188 0.0 0.0 0.24 0.39 0.33 1 1017.0
20260830153050 73 186 0.0 0.0 0.25 0.39 0.33 1 1016.9
20260830151543 73 188 0.0 6.0 0.28 0.37 0.31 1 1017.3
20260830150040 73 319 0.0 10.0 0.15 0.22 0.16 1 1017.4
20260830144533 74 236 0.0 0.0 0.09 0.23 0.09 1 1017.1
20260830143028 75 191 0.0 1.0 0.08 0.22 0.08 1 1016.9
20260830141526 77 186 0.0 0.0 0.01 0.15 0.01 1 1017.1
20260830140020 80 189 0.0 1.0 0.00 0.14 0.00 7 1016.9
20260830134523 82 180 0.0 0.0 0.00 0.14 0.00 1 1016.6
20260830133019 83 180 0.0 0.0 0.00 0.14 0.00 1 1016.5
20260830131508 84 182 0.0 0.0 0.00 0.14 0.00 5 1016.3
20260830130002 85 191 0.0 0.0 0.00 0.14 0.00 8 1016.1
20260830124601 84 192 0.0 0.0 0.00 0.14 0.00 1 1016.1
20260830123054 82 183 0.0 0.0 0.00 0.14 0.00 1 1015.9
20260830121549 80 176 0.0 0.0 0.00 0.14 0.00 1 1015.8
20260830120047 78 184 0.0 0.0 0.00 0.14 0.00 1 1015.8
20260830114541 77 184 0.0 0.0 0.00 0.14 0.00 1 1015.8
20260830113035 0 0.0 0.0 0.00 0.14 0.00 1015.4
20260830111532 0 0.0 0.0 0.00 0.14 0.00 1015.0
20260830110026 0 0.0 0.0 0.00 0.14 0.00 1014.8
20260830104523 0 0.0 0.0 0.00 0.14 0.00 1014.5
20260830103025 0 0.0 0.0 0.00 0.14 0.00 1014.2
20260830101514 0 0.0 0.0 0.00 0.14 0.00 1014.1
20260830100009 0 0.0 0.0 0.00 0.14 0.00 1013.9
20260830094507 0 0.0 0.0 0.00 0.14 0.00 1014.0
20260830093103 0 0.0 0.0 0.00 0.14 0.00 1013.9
20260830091600 0 0.0 0.0 0.00 0.14 0.00 1013.9
20260830090052 0 0.0 0.0 0.00 0.14 0.00 1014.0
20260830084547 0 0.0 0.0 0.00 0.14 0.00 1014.1
20260830083047 0 0.0 0.0 0.00 0.14 0.00 1014.1
20260830081542 0 0.0 0.0 0.00 0.14 0.00 1014.3
20260830080034 0 0.0 0.0 0.00 0.14 0.00 1014.4
20260830074530 0 0.0 0.0 0.00 0.14 0.00 1014.4
20260830073026 0 0.0 0.0 0.00 0.14 0.00 1014.6
20260830071524 0 0.0 0.0 0.00 0.14 0.00 1014.8
20260830070016 0 0.0 0.0 0.00 0.14 0.00 1014.8
20260830064512 0 0.0 0.0 0.00 0.14 0.00 1014.9
20260830063007 0 0.0 0.0 0.00 0.14 0.00 1015.0
20260830061503 0 0.0 0.0 0.00 0.14 0.00 1015.1
20260830060059 0 0.0 0.0 0.00 0.14 0.00 1015.3
20260830054557 0 0.0 0.0 0.00 0.14 0.00 1015.5
20260830053055 0 0.0 0.0 0.00 0.14 0.00 1015.5
20260830051546 0 0.0 0.0 0.00 0.14 0.00 1015.7
20260830050042 0 0.0 0.0 0.00 0.14 0.00 1015.9
20260830044543 0 0.0 0.0 0.00 0.14 0.00 1016.1